DW9565 Weather Reports


Display with metric or nautical units.
time (UTC)temp
F
wind
direction
speed
MPH
gust
MPH
rain 1hr
in
rain 24hr
in
rain mn
in
humidity
%
barometer
mb
20260504201519 47 319 15.0 32.0 0.00 0.00 0.00 39 1016.5
20260504200020 48 287 16.0 30.0 0.00 0.00 0.00 37 1016.4
20260504194518 47 296 18.0 30.0 0.00 0.00 0.00 39 1016.5
20260504193017 47 313 19.0 27.0 0.00 0.00 0.00 41 1016.4
20260504191515 47 295 18.0 28.0 0.00 0.00 0.00 45 1016.4
20260504190026 47 326 19.0 28.0 0.00 0.00 0.00 43 1016.5
20260504184518 46 331 16.0 28.0 0.00 0.00 0.00 45 1016.6
20260504183018 46 298 16.0 26.0 0.00 0.00 0.00 45 1016.6
20260504181519 46 316 17.0 26.0 0.00 0.00 0.00 45 1016.6
20260504180013 46 295 16.0 25.0 0.00 0.00 0.00 46 1016.5
20260504174516 46 312 19.0 27.0 0.00 0.00 0.00 49 1016.6
20260504173012 46 304 17.0 25.0 0.00 0.00 0.00 48 1016.7
20260504171511 46 304 12.0 24.0 0.00 0.00 0.00 50 1016.6
20260504081556 40 355 15.0 20.0 0.00 0.00 0.00 74 1016.4
20260504044534 49 29 10.0 17.0 0.00 0.00 0.00 46 1013.7
20260504043038 49 32 13.0 21.0 0.00 0.00 0.00 46 1013.5
20260504041524 50 32 18.0 26.0 0.00 0.00 0.00 45 1013.2
20260504034524 53 24 10.0 16.0 0.00 0.00 0.00 45 1012.2
20260504033023 53 34 3.0 6.0 0.00 0.00 0.00 44 1011.7
20260504031524 53 26 4.0 10.0 0.00 0.00 0.00 45 1011.4
20260504024540 55 22 8.0 15.0 0.00 0.00 0.00 43 1011.0
20260504023039 56 28 12.0 19.0 0.00 0.00 0.00 42 1010.8
20260504021539 57 12 11.0 20.0 0.00 0.00 0.00 41 1010.8
20260504014529 61 23 15.0 22.0 0.00 0.00 0.00 35 1010.5
20260504013023 63 18 12.0 15.0 0.00 0.00 0.00 31 1010.5
20260504011522 64 355 11.0 22.0 0.00 0.00 0.00 28 1010.4
20260504004521 67 313 10.0 19.0 0.00 0.00 0.00 23 1010.3
20260504003019 67 306 11.0 19.0 0.00 0.00 0.00 24 1010.4
20260504001519 68 321 14.0 21.0 0.00 0.00 0.00 23 1010.6
20260503234517 68 299 15.0 22.0 0.00 0.00 0.00 22 1010.8
20260503233011 67 327 16.0 24.0 0.00 0.00 0.00 22 1010.9
20260503231511 68 296 16.0 24.0 0.00 0.00 0.00 22 1011.0
20260503224518 68 298 12.0 23.0 0.00 0.00 0.00 24 1011.1
20260503223017 68 302 16.0 28.0 0.00 0.00 0.00 22 1011.2
20260503221516 68 297 15.0 26.0 0.00 0.00 0.00 23 1011.2
20260503214535 68 264 15.0 22.0 0.00 0.00 0.00 25 1011.4
20260503213017 67 282 16.0 24.0 0.00 0.00 0.00 23 1011.6
20260503211516 67 298 18.0 29.0 0.00 0.00 0.00 23 1011.8
20260503204511 68 284 17.0 25.0 0.00 0.00 0.00 26 1012.0
20260503203009 66 257 12.0 23.0 0.00 0.00 0.00 25 1012.3